Theta_e
335 336 337 338 346 345 335 335 336 339 338 334 333 335 335 335 336 337 340 341 335 335 334 333 331 332 331 332 333 334 335 336 339 341 342 342 341 341 340 339 340 340 339 339 339 339 340 341 342
340 338 340 338 341 333 334 333 338 337 335 336 336 336 337 340 338 344 342 344 338 336 335 339 335 333 333 333 334 334 335 337 340 340 338 338 337 337 339 337 336 337 337 335 337 337 337 337 339
338 336 340 342 343 334 334 335 337 337 337 339 340 337 336 337 335 341 344 342 339 339 339 337 338 337 333 333 337 340 339 340 338 338 337 336 335 331 326 323 321 325 328 332 334 337 337 338 339
339 339 338 343 346 343 330 336 337 339 336 337 338 340 338 338 339 340 342 341 341 340 340 338 340 339 335 339 341 340 338 339 337 337 336 329 327 327 321 320 320 323 324 326 328 330 332 332 334
337 339 345 348 345 344 340 339 337 341 340 337 338 341 341 339 341 342 343 342 342 343 340 340 339 339 339 339 338 339 338 336 334 333 330 328 326 326 320 319 320 321 324 324 324 325 323 325 328
337 340 348 347 344 342 344 342 341 341 339 338 339 340 339 338 340 345 339 334 343 342 339 340 339 338 336 335 334 333 328 327 330 329 326 329 328 323 322 320 320 320 321 324 325 325 326 327 326
337 342 346 344 343 344 344 342 342 342 343 341 343 345 341 329 326 326 324 324 329 334 336 341 341 338 334 331 329 328 326 326 324 325 321 326 328 328 326 322 321 321 324 324 325 326 324 320 321
334 342 346 344 342 342 340 343 342 344 343 338 342 346 343 327 323 323 323 326 327 328 330 332 337 337 334 329 328 329 327 324 322 320 321 321 321 322 322 323 322 327 325 324 320 322 321 320 320
334 341 347 345 343 341 341 343 342 339 341 340 337 338 325 324 323 323 322 324 326 327 327 329 329 336 335 332 334 333 327 322 322 318 323 321 321 323 323 324 324 322 323 321 320 321 320 320 320
338 339 341 342 341 338 339 342 343 344 342 341 336 327 324 323 323 322 322 323 326 327 327 327 329 328 336 334 330 330 323 322 321 319 323 323 320 322 322 321 321 320 320 320 321 320 320 320 320
335 337 337 340 338 336 342 344 343 343 344 342 328 325 324 323 322 322 322 321 324 326 326 324 326 326 326 325 324 325 323 322 322 319 320 319 317 321 322 320 320 319 321 321 320 320 320 321 320
336 334 336 338 339 338 341 340 342 342 341 338 327 326 325 323 323 323 323 322 322 323 323 323 325 325 325 324 323 322 322 323 322 321 321 319 318 321 321 320 319 320 322 319 318 316 318 320 320
336 337 335 337 336 339 341 343 343 342 338 330 327 327 325 324 324 324 324 323 322 322 323 322 324 323 324 323 323 322 323 323 321 320 321 319 318 321 320 320 319 321 319 318 317 314 318 318 319
339 337 337 335 339 341 344 344 344 344 336 329 328 327 325 326 325 326 326 325 321 321 322 322 321 323 323 323 321 322 322 323 322 320 320 319 318 320 320 319 318 320 319 317 315 315 317 317 318
338 336 337 339 340 343 342 346 347 344 341 331 329 328 327 327 327 327 327 326 324 319 321 323 323 322 322 322 322 321 321 323 321 320 318 319 319 318 320 319 318 319 317 315 313 314 315 317 317
342 341 338 337 339 341 341 347 347 344 343 340 332 329 329 329 329 328 327 326 325 322 319 320 323 323 322 322 322 320 321 322 321 320 319 319 319 317 319 317 317 318 317 314 313 313 314 315 315
336 341 345 343 339 341 338 341 346 344 343 343 334 331 330 331 330 329 328 327 326 323 321 319 319 322 323 323 322 321 321 322 321 320 320 319 318 317 317 315 317 318 316 313 312 312 312 313 313
339 342 341 346 341 340 340 339 347 345 345 343 339 333 331 331 331 330 329 328 327 325 323 320 320 322 323 322 322 322 321 322 321 321 321 319 317 316 317 316 316 317 314 312 312 312 312 312 313
338 340 341 340 340 337 339 340 347 345 344 344 341 338 333 331 331 331 329 329 327 326 324 321 320 322 322 321 321 321 322 322 321 321 321 320 318 317 316 317 315 316 314 312 312 312 312 311 312
337 338 337 337 339 334 338 343 345 345 344 343 341 340 335 332 331 331 329 328 328 327 325 323 319 322 322 322 321 322 323 323 321 321 320 320 319 318 317 316 315 315 314 312 312 313 313 312 312
332 332 338 338 339 339 338 339 349 345 343 341 339 340 339 335 333 330 330 329 329 327 326 325 320 317 321 323 323 322 325 324 321 321 321 320 319 318 317 316 315 314 315 314 313 312 312 313 313
334 332 334 339 337 341 338 338 346 347 347 343 340 340 338 337 334 331 331 330 329 328 327 326 321 321 321 324 322 323 322 323 321 321 320 322 319 318 317 315 315 314 315 315 315 313 312 312 314
333 333 336 339 339 337 341 343 346 345 345 344 342 336 337 336 335 333 331 331 331 329 327 326 323 323 320 322 323 323 322 322 322 321 322 321 319 318 316 316 315 316 316 316 316 314 313 313 314
335 339 334 336 338 345 339 340 345 343 340 340 340 338 337 338 336 334 333 332 332 331 328 326 324 322 321 320 321 321 321 321 321 323 320 321 319 319 317 317 316 316 317 315 315 316 314 314 313
331 331 333 334 340 346 340 343 339 340 338 339 337 337 338 338 337 335 334 333 332 330 328 326 325 324 323 322 323 323 322 322 322 323 323 320 321 320 318 318 317 316 317 315 315 315 315 315 314
333 331 333 340 341 337 340 341 338 334 335 334 334 333 336 336 338 337 334 333 331 330 329 327 325 325 324 322 322 323 323 321 322 322 319 320 321 320 319 318 318 318 316 316 314 315 314 315 315
334 337 333 334 333 332 334 337 336 337 337 337 334 333 332 332 336 337 334 333 331 330 330 328 326 325 325 323 322 323 322 322 321 321 321 319 318 318 319 318 318 319 317 315 315 315 315 314 314
332 333 334 336 339 338 338 336 338 336 339 337 333 334 334 336 334 333 333 332 331 333 331 328 327 326 325 323 322 322 322 322 322 321 321 320 320 319 318 319 319 318 318 318 316 316 316 315 314
334 338 338 336 335 339 342 334 332 335 334 336 334 334 333 338 338 337 336 335 332 332 329 327 327 326 325 324 323 323 322 322 322 321 321 321 321 321 320 320 320 320 319 318 318 318 317 317 316
333 335 334 338 340 336 336 336 335 333 335 332 335 334 336 337 337 336 335 335 334 332 330 327 327 325 325 324 323 323 322 322 322 322 322 322 322 321 321 321 320 319 319 319 319 319 318 318 318
Wind_Speed
5 4 3 3 4 5 3 3 6 5 7 10 10 11 9 7 2 4 6 16 17 13 8 5 3 3 4 3 4 5 5 6 7 8 8 9 9 9 10 11 12 12 11 11 11 10 10 10 11
8 10 6 3 5 3 3 4 15 14 12 14 17 13 13 11 7 10 13 16 13 9 7 6 4 2 3 4 4 5 5 6 7 7 8 8 9 11 11 11 12 12 12 11 11 11 11 10 11
12 11 4 4 1 2 5 7 13 7 5 3 4 6 4 2 6 11 15 16 8 6 8 8 5 4 4 4 4 5 5 5 6 8 8 8 10 11 13 15 16 16 13 11 10 11 11 11 11
4 9 4 4 5 7 7 13 17 14 7 10 10 6 4 9 4 14 16 8 10 12 7 7 5 4 5 5 4 4 4 4 6 6 7 9 10 10 15 15 17 15 13 11 11 11 11 12 12
9 4 5 4 5 8 11 11 11 9 6 8 10 7 5 11 21 20 14 11 13 12 9 7 7 6 7 4 4 6 7 7 9 10 10 9 9 9 13 13 16 17 14 13 13 13 14 14 13
5 4 3 3 4 9 3 6 7 13 8 9 11 7 3 15 20 20 16 15 12 13 9 9 7 6 7 5 9 11 13 13 12 11 11 8 4 9 10 10 14 16 16 14 14 15 16 18 19
7 4 6 4 2 2 4 6 5 6 5 4 3 5 4 20 28 28 27 25 19 13 12 10 7 6 7 9 13 13 12 11 10 7 10 14 9 7 10 7 12 15 14 15 18 21 14 18 16
4 4 4 3 3 4 3 1 2 2 3 3 2 3 4 10 25 26 26 27 24 20 21 15 9 6 8 12 13 11 11 10 14 9 11 11 9 12 12 11 12 14 13 15 14 18 17 18 15
6 4 4 6 7 5 2 5 1 4 7 1 3 5 17 24 25 24 22 22 20 16 11 13 17 7 8 9 9 11 10 12 16 10 12 10 9 9 11 13 11 12 14 14 15 17 17 16 15
5 3 8 6 7 8 7 15 9 5 3 1 10 14 18 24 25 23 21 19 16 15 13 8 12 15 7 7 8 8 9 13 15 10 11 9 10 9 10 13 14 15 12 12 14 14 14 13 15
5 6 7 5 6 6 12 10 4 13 5 10 16 11 16 21 22 23 19 16 15 13 10 8 9 14 16 13 10 10 8 10 12 13 11 12 14 6 11 13 16 14 16 16 15 15 15 16 17
5 6 7 6 7 8 12 10 5 5 7 8 13 17 16 14 16 20 17 14 13 10 9 8 8 9 11 13 12 8 5 6 11 12 12 14 16 13 11 14 18 19 14 16 20 19 15 14 15
5 5 4 11 10 7 8 9 7 4 12 14 18 12 10 13 15 17 16 12 9 10 7 7 4 7 8 9 7 7 7 7 11 11 9 13 15 13 11 14 19 16 15 19 23 19 14 13 15
2 4 2 7 10 10 11 5 7 5 12 14 13 11 11 16 19 18 16 13 9 8 7 7 7 5 7 7 6 7 8 9 9 8 8 11 13 14 11 14 17 12 15 19 23 19 16 15 15
3 5 5 6 7 5 13 2 5 11 10 13 12 12 11 16 22 23 20 15 12 10 9 11 8 6 7 7 5 8 7 8 5 8 7 9 12 10 12 13 16 11 16 21 24 19 14 15 14
5 6 3 4 8 8 6 6 9 13 13 12 12 14 14 16 21 23 21 18 13 12 10 10 9 7 6 8 5 7 6 8 5 6 9 8 11 9 10 12 12 11 16 21 21 19 17 17 18
6 1 1 7 7 6 6 3 13 16 15 13 13 13 13 10 13 22 23 20 16 12 10 8 8 10 5 6 7 7 7 9 4 4 8 9 9 10 9 13 13 13 16 21 19 18 20 20 20
5 4 3 5 4 8 7 8 15 16 15 14 13 13 14 14 14 25 26 22 18 14 10 8 12 10 4 3 8 11 6 10 7 4 4 7 9 9 10 12 12 14 18 19 19 19 20 21 21
7 2 4 8 6 3 6 8 16 17 14 10 12 14 13 15 17 23 28 25 21 17 14 12 15 10 6 6 7 9 6 10 9 6 2 4 6 8 9 10 11 11 17 17 17 19 20 24 25
6 6 7 7 6 6 6 8 13 16 19 18 16 15 14 11 11 20 25 28 26 22 17 13 12 13 10 7 5 4 4 2 12 6 4 1 3 5 7 8 10 10 13 13 16 17 16 15 21
6 8 3 4 3 4 2 5 4 1 6 8 10 15 13 16 17 16 23 27 29 27 23 17 13 14 14 9 6 4 5 7 13 6 6 6 2 2 5 6 8 10 10 12 13 14 15 15 15
2 2 6 4 2 2 3 2 4 6 9 10 12 13 9 14 17 19 23 23 30 30 23 16 13 13 14 11 8 5 5 4 5 2 2 4 8 2 3 5 7 9 9 8 10 11 12 11 12
5 5 3 4 5 3 5 4 5 2 12 14 9 10 10 15 18 19 25 28 30 28 25 20 14 14 13 13 10 7 6 5 4 0 4 4 10 3 2 3 6 6 7 8 9 8 9 9 8
6 2 9 5 3 3 3 4 4 5 9 5 10 16 13 15 15 19 25 24 23 27 26 22 18 15 13 13 10 8 6 4 6 1 2 6 9 3 1 1 5 4 4 6 8 7 7 7 8
6 7 4 5 5 4 5 1 7 5 11 16 15 9 18 15 18 15 19 21 28 32 30 27 23 19 15 13 11 9 6 5 5 7 7 4 7 8 5 3 4 3 4 4 8 7 8 8 8
6 6 4 2 3 3 5 3 4 6 7 6 8 5 7 14 17 17 22 26 29 33 32 30 26 22 18 15 14 13 8 7 5 5 5 5 3 4 6 7 7 6 5 7 8 9 10 11 10
3 4 3 5 4 2 3 5 1 4 6 7 9 18 11 8 4 16 21 26 27 31 37 34 30 25 21 18 16 16 10 8 10 8 6 7 7 7 9 9 9 11 9 8 10 11 9 10 12
6 3 3 4 2 4 5 4 4 5 6 4 13 5 7 4 7 7 6 10 18 34 40 34 31 27 22 19 19 18 13 12 11 10 11 9 11 11 10 12 12 12 15 16 15 15 16 16 16
1 2 5 4 5 4 3 6 6 5 8 4 7 4 5 3 8 11 13 11 16 32 28 31 29 26 21 23 22 20 15 15 13 14 14 13 12 12 12 13 13 15 15 16 17 18 19 22 23
5 6 6 5 4 2 4 6 6 5 6 8 3 3 7 7 8 8 12 22 19 27 19 27 27 23 23 23 23 22 16 17 16 14 16 14 15 14 15 15 17 17 17 18 19 21 22 23 25
Wind_Direction
87 37 21 128 74 57 331 97 140 112 57 59 73 79 86 49 91 161 148 160 138 116 100 94 108 112 90 76 57 44 32 29 31 25 24 21 20 22 22 18 13 7 358 350 343 336 328 318 312
125 91 49 14 61 96 261 144 90 106 125 106 89 81 60 72 76 118 125 163 134 99 54 78 88 96 73 68 54 38 27 23 17 14 11 13 11 15 20 19 14 9 360 353 347 335 322 316 310
93 63 71 65 88 299 125 111 117 100 91 83 83 43 61 77 80 158 150 147 129 86 68 69 75 79 81 71 45 26 19 11 8 13 20 21 27 33 28 18 13 1 351 349 347 342 345 339 328
63 38 45 68 355 294 128 120 111 111 85 106 122 60 41 87 92 139 146 139 114 113 95 90 83 92 89 61 52 24 24 15 25 28 35 49 49 43 31 23 16 9 358 345 341 338 336 332 329
57 58 37 15 338 14 82 111 113 104 89 73 97 115 100 96 128 136 130 126 100 107 91 95 77 73 74 62 76 63 57 55 56 57 47 34 42 33 20 21 21 24 22 20 12 7 1 351 335
55 84 51 310 355 1 16 117 94 80 82 98 97 109 138 100 117 131 105 89 103 97 84 94 82 86 97 88 90 87 86 75 60 44 32 2 28 22 4 8 19 18 24 14 4 356 353 2 360
113 107 173 171 239 290 256 303 69 100 101 50 139 101 79 101 109 112 100 92 92 94 84 83 87 103 91 102 102 102 88 64 35 26 31 53 57 4 339 335 14 9 10 6 2 0 13 358 360
82 74 127 205 177 251 250 137 59 96 72 142 346 122 126 116 105 98 92 91 90 82 80 77 76 127 111 111 110 104 88 65 35 42 48 81 60 45 49 23 11 2 12 14 9 13 14 3 11
122 73 150 183 152 229 175 152 20 30 108 6 83 88 119 117 108 98 91 80 79 80 70 66 63 138 128 116 123 108 91 63 35 36 49 59 36 50 48 34 39 15 10 14 9 10 4 357 355
93 112 211 184 167 181 185 126 152 123 116 99 96 112 119 111 101 95 89 81 82 79 73 47 68 76 162 128 121 142 90 53 32 44 48 34 22 37 41 31 25 7 13 13 8 10 4 359 359
170 175 173 206 177 178 155 136 140 144 175 167 146 130 123 109 102 98 99 97 94 93 79 53 83 86 100 110 101 113 90 42 41 42 36 24 23 37 37 28 11 14 13 22 19 4 358 1 5
50 14 143 167 191 164 148 145 137 181 186 148 132 126 116 110 120 119 115 109 99 96 86 59 85 91 95 96 91 91 80 74 60 49 39 28 28 39 43 28 25 16 25 16 6 355 345 351 7
78 2 63 139 128 126 124 139 133 112 121 122 130 124 131 133 136 132 126 120 119 102 109 86 105 90 110 97 104 79 109 108 80 60 47 30 26 36 45 27 23 31 27 15 6 0 3 5 5
170 117 159 135 147 134 131 152 116 190 137 140 143 156 153 149 151 145 143 136 120 140 120 115 104 124 108 113 113 99 112 128 88 63 57 41 33 39 48 26 26 41 22 12 6 4 8 13 8
60 91 17 142 153 127 116 223 191 167 162 160 164 168 153 164 164 164 157 146 140 138 131 152 114 112 143 119 100 131 128 139 107 59 50 38 28 36 44 26 29 43 21 13 8 8 13 14 2
31 63 49 218 153 167 122 242 181 175 177 183 180 171 168 180 175 163 159 156 158 147 144 151 149 159 147 154 175 154 162 161 147 59 45 30 25 30 36 24 37 36 16 11 13 15 13 9 3
346 16 152 311 206 141 199 246 183 180 186 199 187 185 175 175 171 168 166 168 167 162 150 152 175 180 194 215 224 197 190 176 164 85 42 35 34 41 40 37 44 28 22 18 21 25 20 11 358
207 208 225 231 273 184 201 240 181 191 199 203 193 193 183 182 187 175 174 173 172 169 159 147 163 177 206 106 175 191 171 184 173 132 54 47 49 43 53 47 32 31 24 24 32 30 30 20 6
183 321 158 263 214 107 267 251 191 192 206 215 208 193 185 191 186 176 179 179 176 178 174 164 170 179 180 173 150 157 170 186 174 165 135 67 56 51 50 50 43 38 27 35 33 31 27 26 18
171 174 218 250 93 137 215 253 191 195 205 211 204 204 188 178 167 176 179 182 185 184 185 176 173 179 175 167 165 186 249 278 189 179 191 169 48 51 52 53 40 41 34 37 31 30 29 27 30
250 131 211 186 97 32 299 35 77 7 335 296 264 213 201 177 179 181 186 187 190 190 188 184 175 172 183 183 193 215 244 185 172 182 209 201 184 65 49 58 44 38 36 32 29 32 31 27 24
55 164 168 165 97 7 354 316 19 337 292 289 267 239 205 191 188 180 187 196 193 197 192 185 180 176 176 179 180 180 138 147 160 236 285 221 187 159 60 54 48 40 34 24 23 23 28 31 26
207 134 122 83 85 96 2 77 277 155 260 250 262 236 214 195 185 187 191 200 196 197 194 190 186 188 180 185 186 176 182 178 195 47 348 157 181 164 85 67 43 37 23 25 18 8 13 23 19
122 144 36 52 55 30 243 157 234 183 230 297 258 222 204 195 194 195 194 194 181 197 197 194 192 194 188 181 183 199 212 224 222 301 100 175 188 183 185 44 28 24 350 6 3 353 343 349 360
87 46 356 1 1 232 228 53 249 216 235 233 239 247 209 183 191 188 188 176 181 189 199 200 196 198 193 188 186 196 213 214 241 274 241 213 198 225 224 247 351 332 314 339 348 347 334 317 315
78 116 154 353 314 289 272 284 272 219 229 247 4 354 184 182 189 190 185 180 183 188 204 204 202 201 197 195 197 203 217 229 247 211 262 240 263 262 245 259 270 301 306 302 316 333 327 306 302
16 44 251 110 160 14 232 281 235 302 324 323 14 41 26 16 283 183 188 186 180 184 210 207 204 202 202 203 200 203 213 224 223 241 258 260 269 276 266 281 288 273 280 284 286 291 303 304 300
120 170 13 17 343 323 287 295 251 262 266 309 51 30 10 51 109 72 21 216 178 201 214 209 206 200 205 206 208 207 216 223 233 235 246 264 272 268 277 279 281 284 279 283 289 285 284 283 288
64 52 44 112 139 190 309 283 238 193 214 232 90 348 24 112 109 128 160 296 229 216 224 206 207 198 202 212 213 213 218 222 236 242 249 258 270 265 275 288 287 282 286 288 286 285 288 278 281
159 161 150 128 227 189 150 276 343 8 72 113 152 121 62 128 82 98 149 237 251 232 233 211 206 199 210 215 219 220 221 221 232 251 254 263 270 270 273 284 285 284 284 285 283 284 285 283 283